User: anonymous   Login
Location: Unspecified
(0.0000°N, 0.0000°E)
Time: 05:00:09
(UTC+00:00)
Language:

Envisat - Orbit

View from above orbital plane
View from above orbital plane
View from above satellite
View from above satellite

Ground track
Ground track

The orbit data is extracted from the following two-line orbital elements,

1 27386U 02009A   19111.71626052 -.00000002  00000-0  12883-4 0  9998
2 27386  98.1543 135.6926 0001418  89.7210  28.3820 14.37946472897869
Epoch (UTC): 21 April 2019 17:11:24
Eccentricity: 0.0001418
inclination: 98.1543°
perigee height: 764 km
apogee height: 766 km
right ascension of ascending node: 135.6926°
argument of perigee: 89.7210°
revolutions per day: 14.37946472
mean anomaly at epoch: 28.3820°
orbit number at epoch: 89786

The dashed part of the orbit path shows where the satellite is in the earth's shadow,  

DLR